[TLELIST] Archives

 

[TLELIST] Current TLEs

September 13th 2024 PDT

HST 1 20580U 90037B 24256.79885686 .00017384 00000-0 78898-3 0 9996 2 20580 28.4669 117.5175 0002397 289.7062 70.3272 15.19379060690360 ISS (ZARYA) 1 25544U 98067A 24257.31072666 .00034102 00000-0 62315-3 0 9991 2 25544 51.6380 238.8472 0007773 348.8188 159.3383 15.49033185472210 CXO 1 25867U 99040B 24260.41841978 .00001178 00000-0 00000+0 0 9992 2 25867 43.0906 146.4135 8793537 301.2858 0.7279 0.37805052 26064 ...Continue Reading

[TLELIST] Current TLEs

September 13th 2024 PDT

HST 1 20580U 90037B 24256.79885686 .00017384 00000-0 78898-3 0 9996 2 20580 28.4669 117.5175 0002397 289.7062 70.3272 15.19379060690360 ISS (ZARYA) 1 25544U 98067A 24257.31072666 .00034102 00000-0 62315-3 0 9991 2 25544 51.6380 238.8472 0007773 348.8188 159.3383 15.49033185472210 CXO 1 25867U 99040B 24260.41841978 .00001178 00000-0 00000+0 0 9992 2 25867 43.0906 146.4135 8793537 301.2858 0.7279 0.37805052 26064 ...Continue Reading

[TLELIST] Current TLEs

September 12th 2024 PDT

HST 1 20580U 90037B 24256.07631519 .00014325 00000-0 64926-3 0 9990 2 20580 28.4670 122.3707 0002409 280.4010 79.6312 15.19355240690510 ISS (ZARYA) 1 25544U 98067A 24256.46084667 .00027694 00000-0 50912-3 0 9998 2 25544 51.6380 243.0542 0007697 345.2843 100.4574 15.48970942472084 CXO 1 25867U 99040B 24257.77475761 .00001188 00000-0 00000-0 0 9992 2 25867 43.0300 146.5909 8796423 301.2084 0.7367 0.37804065 14901 ...Continue Reading

[TLELIST] Current TLEs

September 12th 2024 PDT

HST 1 20580U 90037B 24256.07631519 .00014325 00000-0 64926-3 0 9990 2 20580 28.4670 122.3707 0002409 280.4010 79.6312 15.19355240690510 ISS (ZARYA) 1 25544U 98067A 24256.46084667 .00027694 00000-0 50912-3 0 9998 2 25544 51.6380 243.0542 0007697 345.2843 100.4574 15.48970942472084 CXO 1 25867U 99040B 24257.77475761 .00001188 00000-0 00000-0 0 9992 2 25867 43.0300 146.5909 8796423 301.2084 0.7367 0.37804065 14901 ...Continue Reading

[TLELIST] Current TLEs

September 11th 2024 PDT

HST 1 20580U 90037B 24254.89395403 .00014387 00000-0 65267-3 0 9994 2 20580 28.4669 130.3127 0002359 266.4019 93.6304 15.19325237690071 ISS (ZARYA) 1 25544U 98067A 24255.37477303 .00074360 00000-0 13474-2 0 9993 2 25544 51.6380 248.4286 0007319 340.4595 165.1376 15.48928288471915 CXO 1 25867U 99040B 24255.13154676 .00001106 00000-0 00000-0 0 9999 2 25867 42.9668 146.7823 8799070 301.1020 0.8196 0.37808015 14880 ...Continue Reading

[TLELIST] Current TLEs

September 10th 2024 PDT

HST 1 20580U 90037B 24253.97432398 .00015242 00000-0 69249-3 0 9992 2 20580 28.4669 136.4891 0002345 255.3405 104.6928 15.19298391689935 ISS (ZARYA) 1 25544U 98067A 24254.40669491 .00075817 00000-0 13757-2 0 9999 2 25544 51.6371 253.2173 0007600 336.3607 167.6866 15.48877351471763 CXO 1 25867U 99040B 24255.13154676 .00001106 00000-0 00000-0 0 9999 2 25867 42.9668 146.7823 8799070 301.1020 0.8196 0.37808015 14880 ...Continue Reading

[TLELIST] Current TLEs

September 10th 2024 PDT

HST 1 20580U 90037B 24253.97432398 .00015242 00000-0 69249-3 0 9992 2 20580 28.4669 136.4891 0002345 255.3405 104.6928 15.19298391689935 ISS (ZARYA) 1 25544U 98067A 24254.40669491 .00075817 00000-0 13757-2 0 9999 2 25544 51.6371 253.2173 0007600 336.3607 167.6866 15.48877351471763 CXO 1 25867U 99040B 24255.13154676 .00001106 00000-0 00000-0 0 9999 2 25867 42.9668 146.7823 8799070 301.1020 0.8196 0.37808015 14880 ...Continue Reading

[TLELIST] Current TLEs

September 9th 2024 PDT

HST 1 20580U 90037B 24252.79191771 .00014790 00000-0 67242-3 0 9996 2 20580 28.4667 144.4303 0002338 240.8020 119.2339 15.19263142689758 ISS (ZARYA) 1 25544U 98067A 24253.37374331 .00078045 00000-0 14188-2 0 9995 2 25544 51.6380 258.3253 0008051 334.1637 166.5714 15.48808057471608 CXO 1 25867U 99040B 24255.13154676 .00001106 00000-0 00000-0 0 9999 2 25867 42.9668 146.7823 8799070 301.1020 0.8196 0.37808015 14880 ...Continue Reading

[TLELIST] Current TLEs

September 8th 2024 PDT

HST 1 20580U 90037B 24251.80655836 .00016282 00000-0 74158-3 0 9996 2 20580 28.4669 151.0475 0002306 228.9907 131.0486 15.19236233689600 ISS (ZARYA) 1 25544U 98067A 24252.47273487 .00070431 00000-0 12850-2 0 9990 2 25544 51.6372 262.7820 0007441 329.0861 184.7243 15.48753613471462 CXO 1 25867U 99040B 24255.13087450 .00001106 00000-0 00000+0 0 9993 2 25867 42.9668 146.7823 8799069 301.1020 0.7278 0.37808076 26046 ...Continue Reading

[TLELIST] Current TLEs

September 8th 2024 PDT

HST 1 20580U 90037B 24251.80655836 .00016282 00000-0 74158-3 0 9996 2 20580 28.4669 151.0475 0002306 228.9907 131.0486 15.19236233689600 ISS (ZARYA) 1 25544U 98067A 24252.47273487 .00070431 00000-0 12850-2 0 9990 2 25544 51.6372 262.7820 0007441 329.0861 184.7243 15.48753613471462 CXO 1 25867U 99040B 24255.13087450 .00001106 00000-0 00000+0 0 9993 2 25867 42.9668 146.7823 8799069 301.1020 0.7278 0.37808076 26046 ...Continue Reading
  • This mailing list is a public mailing list - anyone may join or leave, at any time.
  • This mailing list is announce-only.

International Space Station (ISS) / Hubble Space Telescope (HST) / Chandra X-Ray Observatory Orbital Data via EMAIL

Privacy Policy:

Private list